Ketchikan, AK

4:13 PM AKST on December 12, 2018 (GMT -0900)
Ketchikan International

Weather History for PAKT - October, 2018

Change the Weather History Date:

Friday, October 19, 2018

  Actual Average Record
Temperature  
Mean Temperature 50 °F -  
Max Temperature 54 °F 50 °F 62 °F (1953)
Min Temperature 48 °F 40 °F 28 °F (2004)
Degree Days  
Heating Degree Days 14    
Moisture  
Dew Point 49 °F    
Average Humidity 89    
Maximum Humidity 94    
Minimum Humidity 80    
Precipitation  
Precipitation 0.54 in - - ()
Sea Level Pressure  
Sea Level Pressure 30.05 in    
Wind  
Wind Speed 11 mph (SE)    
Max Wind Speed 21 mph    
Max Gust Speed 37 mph    
Visibility 7 miles    
Events Rain    
Averages and records for this station are not official NWS values.
T = Trace of Precipitation, MM = Missing Value Source: NWS Daily Summary

Daily Weather History Graph

Daily Weather History Graph

Search for Another Location

Airport or City:

Astronomy

Oct. 19, 2018 Rise Set
Actual Time 7:25 AM AKDT 5:37 PM AKDT
Civil Twilight 6:48 AM AKDT 6:14 PM AKDT
Nautical Twilight 6:05 AM AKDT 6:56 PM AKDT
Astronomical Twilight 5:23 AM AKDT 7:39 PM AKDT
Moon 4:33 PM AKDT (10/19) 1:12 AM AKDT (10/19)
Length of Visible Light 11h 26m
Length of Day
10h 11m
Waxing Gibbous, 78% of the Moon is Illuminated
Oct 19
Waxing Gibbous
Oct 24
Full
Oct 31
Last Quarter
Nov 7
New
Nov 15
First Quarter

Hourly Weather History & Observations

Time (AKDT) Temp. Dew Point Humidity Pressure Visibility Wind Dir Wind Speed Gust Speed Precip Events Conditions
12:31 AM 51.1 °F 46.9 °F 86% 30.07 in 9.0 mi South 6.9 mph - 0.00 in Rain Light Rain
12:53 AM 51.1 °F 46.9 °F 86% 30.08 in 7.0 mi South 6.9 mph - 0.00 in Rain Light Rain
1:53 AM 50.0 °F 48.0 °F 93% 30.06 in 4.0 mi South 6.9 mph - 0.02 in Rain Light Rain
2:17 AM 50.0 °F 48.0 °F 93% 30.06 in 2.5 mi South 8.1 mph - 0.01 in Rain Light Rain
2:32 AM 51.1 °F 48.9 °F 92% 30.05 in 3.0 mi SSE 9.2 mph - 0.02 in Rain Light Rain
2:53 AM 51.1 °F 48.0 °F 89% 30.05 in 4.0 mi South 8.1 mph - 0.03 in Rain Light Rain
3:40 AM 51.1 °F 48.0 °F 89% 30.03 in 10.0 mi SSE 10.4 mph 17.3 mph 0.01 in   Overcast
3:53 AM 51.1 °F 48.0 °F 89% 30.03 in 10.0 mi SSE 10.4 mph - 0.01 in   Overcast
4:53 AM 51.1 °F 46.9 °F 86% 30.00 in 10.0 mi South 6.9 mph - N/A   Overcast
5:53 AM 52.0 °F 46.9 °F 83% 29.98 in 10.0 mi SSE 11.5 mph - 0.01 in   Overcast
6:24 AM 53.1 °F 46.9 °F 80% 29.99 in 10.0 mi SSE 11.5 mph 18.4 mph N/A   Overcast
6:53 AM 53.1 °F 46.9 °F 80% 29.98 in 10.0 mi SSE 11.5 mph 21.9 mph 0.00 in Rain Light Rain
7:53 AM 53.1 °F 48.0 °F 83% 29.96 in 10.0 mi SSE 17.3 mph 24.2 mph 0.02 in   Overcast
8:53 AM 53.6 °F 50.0 °F 88% 29.96 in 8.0 mi SE 16.1 mph - N/A Rain Light Rain
9:12 AM 51.8 °F 50.0 °F 94% 29.96 in 2.0 mi SSE 12.7 mph 20.7 mph N/A Rain Heavy Rain
9:53 AM 53.6 °F 51.8 °F 94% 29.97 in 2.0 mi SE 20.7 mph 27.6 mph N/A Rain Heavy Rain
10:21 AM 53.6 °F 51.8 °F 94% 29.97 in 3.0 mi SE 20.7 mph 36.8 mph N/A Rain Heavy Rain
10:53 AM 53.6 °F 51.8 °F 94% 29.99 in 3.0 mi SE 18.4 mph 31.1 mph N/A Rain Heavy Rain
11:53 AM 53.1 °F 50.0 °F 89% 30.00 in 3.0 mi SE 16.1 mph 27.6 mph 0.26 in Rain Rain
12:17 PM 51.8 °F 50.0 °F 94% 29.99 in 5.0 mi SE 16.1 mph - N/A Rain Light Rain
12:53 PM 51.8 °F 50.0 °F 94% 30.01 in 7.0 mi SE 12.7 mph - N/A Rain Light Rain
1:53 PM 53.6 °F 50.0 °F 88% 30.01 in 10.0 mi ESE 15.0 mph - N/A   Overcast
2:53 PM 53.6 °F 51.8 °F 94% 30.04 in 10.0 mi SE 10.4 mph - N/A   Overcast
3:16 PM 53.6 °F 51.8 °F 94% 30.04 in 10.0 mi ESE 13.8 mph - N/A   Overcast
3:53 PM 53.6 °F 51.8 °F 94% 30.05 in 10.0 mi SE 11.5 mph - N/A   Overcast
4:53 PM 53.6 °F 50.0 °F 88% 30.07 in 10.0 mi SE 10.4 mph - N/A   Mostly Cloudy
5:53 PM 51.8 °F 48.2 °F 88% 30.07 in 10.0 mi SE 12.7 mph - N/A   Mostly Cloudy
6:53 PM 52.0 °F 48.9 °F 89% 30.07 in 10.0 mi SE 9.2 mph - 0.00 in Rain Light Rain
7:53 PM 52.0 °F 48.0 °F 86% 30.08 in 10.0 mi SE 15.0 mph - 0.01 in   Mostly Cloudy
8:53 PM 50.0 °F 46.0 °F 86% 30.09 in 5.0 mi SE 8.1 mph - 0.03 in Rain Light Rain
9:13 PM 48.9 °F 46.0 °F 90% 30.09 in 2.5 mi SE 5.8 mph - 0.09 in Rain Rain
9:20 PM 50.0 °F 46.0 °F 86% 30.10 in 5.0 mi ESE 4.6 mph - 0.10 in Rain Light Rain
9:53 PM 50.0 °F 46.9 °F 89% 30.10 in 3.0 mi East 9.2 mph - 0.15 in Rain Light Rain
10:12 PM 51.1 °F 48.0 °F 89% 30.11 in 10.0 mi ESE 12.7 mph - 0.00 in   Overcast
10:53 PM 50.0 °F 46.9 °F 89% 30.12 in 10.0 mi SE 10.4 mph - 0.00 in   Overcast
11:06 PM 51.1 °F 46.9 °F 86% 30.13 in 10.0 mi SE 9.2 mph - N/A   Overcast
11:16 PM 51.1 °F 46.9 °F 86% 30.13 in 10.0 mi ESE 10.4 mph - N/A   Overcast
11:32 PM 51.1 °F 46.9 °F 86% 30.13 in 10.0 mi ESE 15.0 mph - N/A   Overcast
11:53 PM 50.0 °F 46.9 °F 89% 30.14 in 10.0 mi ESE 12.7 mph - N/A   Mostly Cloudy